Torna al catalogo

COSMOS 1464

AttivoMilitarePO
NORAD 14084·PAYLOAD·🇷🇺 Russia

Lanciato May 24, 1983 da Plesetsk Cosmodrome

Loading…

Prossimi Passaggi (prossime 24 ore)

TLE

AggiornatoSource: Space-Track

Epoca: Sep 14, 2026, 11:00 UTC

1 14084U 83048A   26257.45891897  .00000067  00000-0  53951-4 0  9993
2 14084  82.9465 139.2697 0030770 138.6430  34.1963 13.74699739172208

Traccia COSMOS 1464 in tempo reale con AllMySat

Download on the App Store